RH
33 33 33 35 32 29 28 28 28 29 29 28 30 31 41 41 38 40 41 41 41 41 42 40 38 36 34 33 31 30 31 31 31 31 29 29 29 28 26 24 23 22 22 23
37 37 35 34 36 35 36 35 36 35 34 34 35 46 47 46 46 46 46 46 46 46 44 43 41 39 38 37 38 37 36 34 34 34 32 31 31 31 29 27 26 25 25 25
41 39 40 38 40 40 40 39 39 37 37 37 38 44 48 48 47 48 47 48 48 47 46 46 46 45 43 41 41 41 40 39 39 38 38 36 35 35 34 31 29 29 28 28
41 39 39 39 40 40 40 39 39 40 41 44 39 43 48 50 48 48 48 50 51 52 51 50 49 48 47 46 45 45 43 42 42 43 43 41 40 40 40 38 35 32 31 30
41 43 45 46 44 44 44 44 45 46 48 47 46 48 49 51 49 50 52 53 55 56 56 55 54 54 52 51 49 49 48 48 47 47 48 48 48 49 49 47 44 39 35 33
48 47 46 45 44 43 44 44 46 49 48 54 45 44 52 57 57 57 57 57 57 57 57 57 56 56 56 57 55 54 53 53 53 53 54 54 55 55 55 54 52 48 43 39
48 45 43 42 42 43 43 47 53 50 61 53 47 49 59 59 59 58 59 59 59 59 59 58 58 58 59 60 60 60 60 60 59 59 60 61 61 63 61 60 58 56 52 47
58 52 49 49 47 47 50 51 56 55 58 51 54 57 63 62 61 61 61 62 61 60 60 60 60 62 63 64 64 65 65 66 65 66 67 68 69 69 68 67 64 61 60 56
63 55 51 50 51 48 51 54 53 56 55 60 53 61 61 54 54 56 58 58 59 59 59 61 63 64 63 64 67 70 72 72 72 72 73 74 75 75 73 72 71 68 64 64
58 53 48 48 47 47 46 49 51 52 56 65 52 58 53 52 53 55 56 57 56 54 52 53 53 54 58 64 70 72 74 77 79 79 79 79 80 80 78 76 75 74 73 70
37 41 32 23 40 39 40 45 47 52 56 63 62 52 54 59 61 62 62 61 59 59 59 59 59 58 57 57 59 65 70 78 82 84 86 86 85 87 84 82 81 79 77 77
22 32 26 33 34 32 34 38 36 49 55 52 61 54 59 60 61 59 57 56 57 56 54 54 55 58 61 61 64 66 66 69 80 87 90 91 89 89 92 89 88 86 82 79
21 25 23 43 49 37 43 43 43 43 49 55 58 50 55 55 52 53 54 53 53 53 51 52 53 54 56 59 63 69 76 76 76 78 91 94 94 93 96 98 96 93 90 84
19 30 22 21 29 33 38 35 37 38 48 41 45 47 46 47 50 51 52 51 52 50 49 47 46 47 49 53 56 64 73 76 77 84 89 91 96 96 96 96 97 97 96 92
26 39 38 40 35 34 42 42 40 42 38 41 42 49 51 54 55 54 54 50 50 50 50 47 46 44 44 46 51 56 64 67 76 82 87 96 96 96 95 95 97 97 97 96
30 32 33 33 29 32 43 45 45 49 56 59 62 63 61 59 57 55 52 54 55 54 50 47 46 45 44 44 44 45 50 58 62 69 81 85 90 91 94 96 97 97 97 96
34 39 42 48 43 48 56 58 59 63 66 67 66 68 66 64 60 56 55 60 58 54 48 47 45 43 43 43 45 46 46 48 50 55 64 71 71 75 81 85 88 91 94 97
48 50 53 60 61 65 61 65 65 66 69 71 71 69 69 67 65 62 66 64 60 51 48 46 43 43 42 41 42 43 46 47 50 54 54 55 60 65 63 63 69 74 78 85
57 60 65 66 70 66 66 67 70 69 69 73 75 73 73 72 68 69 67 64 56 52 49 46 44 44 44 44 44 43 42 42 44 46 46 46 47 47 50 55 56 56 59 63
58 63 70 74 78 79 72 74 76 79 76 77 81 80 79 76 70 65 60 52 46 44 42 40 39 38 37 36 38 39 41 41 41 40 39 40 42 43 43 43 43 46 47 48
66 69 76 83 86 84 83 85 88 86 84 89 88 84 75 68 57 49 44 42 42 41 40 40 38 37 36 35 35 33 32 32 33 33 35 36 37 36 35 35 35 37 37 39
73 78 80 85 90 90 88 90 92 92 93 90 79 69 59 51 46 43 43 42 41 40 38 36 35 34 34 33 31 31 31 31 31 31 31 31 32 33 34 34 34 35 35 33
81 88 90 92 93 95 94 92 89 84 71 66 58 50 47 45 45 46 43 40 38 38 37 37 39 39 37 36 36 36 35 34 33 32 32 32 32 32 32 34 35 34 33 33
92 90 95 85 94 89 80 71 67 62 54 49 45 44 44 45 45 45 47 47 47 46 44 47 46 45 43 44 43 42 41 40 39 38 38 37 37 39 40 36 35 35 35 36
88 83 80 74 67 57 61 53 48 42 39 40 46 49 51 52 52 52 50 49 46 45 48 48 43 39 36 34 33 33 33 32 32 32 32 32 34 36 37 39 41 43 43 44
75 68 60 53 46 42 37 37 42 45 49 51 52 53 55 55 51 46 40 36 35 37 37 33 32 32 31 30 30 29 30 30 30 30 32 34 36 34 36 37 34 36 44 49